Home > Weather > Bo > Past weeks

Flag for Sierra Leone Weather for the Past 2 Weeks in Bo, Sierra Leone

Now
81 °F

Passing clouds.


Feels Like: 88 °F
Forecast: N/A
Wind: No wind

Location: Roberts Field

Current Time: Apr 30, 2016 at 10:35:49 PM

Latest Report: Apr 30, 2016 at 9:00 PM


Visibility: N/A

Pressure: 29.83 "Hg

Humidity: 94%

Dew Point: 79 °F

Location of BoLocation

Historic Weather in Bo — Graph

°F

Bo Temperature Yesterday

Maximum temperature yesterday: 90 °F (at 12:00 PM)
Minimum temperature yesterday: 75 °F (at 4:00 AM)
Average temperature yesterday: 82 °F

High & Low Weather Summary for the Past Weeks

 TemperatureHumidityPressure
High95 °F (Apr 27, 3:30 PM)94% (Apr 16, 6:30 AM)29.95 "Hg (Apr 16, 6:30 AM)
Low75 °F (Apr 16, 6:30 AM)56% (Apr 27, 1:30 PM)29.74 "Hg (Apr 25, 3:00 PM)
Average84 °F81%29.83 "Hg
* Reported Apr 16 6:30 AM — Apr 30 8:30 PM, Bo, Weather by CustomWeather, © 2016

Note: Actual official high and low records may vary slightly from our data, if they occured in-between our weather recording intervals... More about our weather records

Advertising

Bo Weather History for the Previous 24 Hours

Scroll right to see more
 ConditionsComfort  
Time TempWeatherWind HumidityBarometerVisibility
8:30 PM
Sat, Apr 30
81 °FPassing clouds.No wind89%29.80 "HgN/A
8:00 PM81 °FPassing clouds.No wind89%29.80 "HgN/A
7:30 PM82 °FPassing clouds.No wind84%29.80 "HgN/A
7:00 PM82 °FPassing clouds.No wind84%29.80 "HgN/A
6:30 PM84 °FPassing clouds.3 mph84%29.77 "HgN/A
6:00 PM84 °FPassing clouds.9 mph79%29.77 "HgN/A
5:30 PM86 °FPassing clouds.7 mph75%29.77 "HgN/A
5:00 PM88 °FSunny.9 mph70%29.77 "Hg10 mi
4:30 PM88 °FPassing clouds.12 mph70%29.77 "HgN/A
4:00 PM90 °FPassing clouds.10 mph67%29.77 "HgN/A
3:30 PM91 °FScattered clouds.5 mph67%29.77 "HgN/A
3:00 PM91 °FScattered clouds.10 mph67%29.80 "HgN/A
2:30 PM90 °FPartly sunny.13 mph67%29.80 "HgN/A
2:00 PM90 °FPartly sunny.12 mph63%29.80 "HgN/A
1:30 PM90 °FPartly sunny.14 mph67%29.83 "HgN/A
1:00 PM90 °FPartly sunny.No wind67%29.86 "HgN/A
12:30 PM88 °FPartly sunny.6 mph75%29.86 "HgN/A
12:00 PM88 °FPartly sunny.12 mph75%29.86 "HgN/A
11:30 AM90 °FPartly sunny.No wind67%29.89 "HgN/A
11:00 AM90 °FPartly sunny.No wind67%29.89 "HgN/A
10:30 AM88 °FPartly sunny.No wind70%29.89 "HgN/A
10:00 AM86 °FPartly sunny.No wind79%29.89 "HgN/A
9:30 AM84 °FPartly sunny.No wind79%29.89 "HgN/A
9:00 AM82 °FScattered clouds.No wind94%29.86 "Hg6 mi
8:30 AM81 °FScattered clouds.No wind94%29.86 "Hg5 mi
8:00 AM79 °FScattered clouds.No wind94%29.86 "Hg4 mi
7:00 AM75 °FFog.No wind94%29.86 "Hg4 mi
6:00 AM77 °FPassing clouds.No wind94%29.83 "HgN/A
5:00 AM77 °FPassing clouds.No wind94%29.80 "HgN/A
4:00 AM77 °FPassing clouds.6 mph94%29.80 "HgN/A
2:30 AM77 °FPassing clouds.5 mph94%29.83 "HgN/A
1:30 AM77 °FPassing clouds.No wind94%29.83 "HgN/A
1:00 AM77 °FPassing clouds.No wind94%29.83 "HgN/A
12:30 AM79 °FPassing clouds.No wind94%29.86 "HgN/A
12:00 AM79 °FPassing clouds.No wind94%29.86 "HgN/A
11:30 PM
Fri, Apr 29
79 °FPassing clouds.No wind94%29.86 "HgN/A
11:00 PM79 °FPassing clouds.No wind94%29.86 "HgN/A
10:30 PM79 °FPassing clouds.No wind94%29.86 "HgN/A
10:00 PM79 °FPassing clouds.No wind94%29.86 "HgN/A
Weather by CustomWeather, © 2016

See weather overviewHow to use our weather pages